#timestamp,LO_Frequency,Hit,StdDev 
1667818815.3,286047002.8,N
1667818835.1,286047002.2,N
1667818855.9,286047004.3,N
1667818875.7,286047001.4,N
1667818895.5,286047003.8,N
1667818915.4,286047001.3,N
1667818935.2,286047002.7,N
1667818955.0,286047001.2,N
1667818956.0,286047001.2,N
1667818975.8,286047000.1,N
1667818995.6,286047000.1,N
1667819015.5,286047001.0,N
1667819035.3,286047000.3,N
1667819055.1,286046999.8,N
1667819075.9,286047001.7,N
1667819095.7,286047004.3,N
1667819115.6,286047002.4,N
1667819135.4,286047002.1,N
1667819155.2,286047002.3,N
1667819175.1,286047002.5,N
1667819176.0,286047002.5,N
1667819195.8,286047004.0,N
1667819215.6,286047003.6,N
1667819235.5,286047005.5,N
1667819255.3,286047005.2,N
1667819275.2,286047003.1,N
1667819295.9,286047004.1,N
1667819315.7,286047004.1,N
1667819335.6,286047003.9,N
1667819355.4,286047002.9,N
1667819375.2,286047003.0,N
1667819395.1,286047002.2,N
1667819396.0,286047002.2,N
1667819415.8,286047000.8,N
1667819435.7,286047001.0,N
1667819455.5,286047002.2,N
1667819475.3,286047000.1,N
1667819495.2,286047000.2,N
1667819515.0,286047000.7,N
1667819515.9,286047000.7,N
1667819535.8,286047000.9,N
1667819555.6,286046996.7,N
1667819575.4,286046995.1,N
1667819595.3,286046996.7,N
1667819615.1,286046998.9,N
1667819635.8,286046999.8,N
1667819655.7,286047003.7,N
1667819675.5,286047004.1,N
1667819695.4,286047003.9,N
1667819715.2,286047003.5,N
1667819735.0,286047003.5,N
1667819735.9,286047003.5,N
1667819755.8,286047003.3,N
1667819775.6,286047002.9,N
1667819795.4,286047003.0,N
1667819815.3,286047005.9,N
1667819835.1,286047003.4,N
1667819855.9,286047005.8,N
1667819875.7,286047003.3,N
1667819895.5,286047004.2,N
1667819915.4,286047003.4,N
1667819935.2,286047003.1,N
1667819955.0,286047002.9,N
1667819956.0,286047002.9,N
1667819975.8,286047004.2,N
1667819995.6,286047003.5,N
1667820015.5,286047003.8,N
1667820035.3,286047003.2,N
1667820055.1,286047004.0,N
1667820075.9,286047003.6,N
1667820095.7,286047001.7,N
1667820115.6,286047002.0,N
1667820135.4,286047002.3,N
1667820155.2,286047002.6,N
1667820175.1,286047002.4,N
1667820176.0,286047002.4,N
1667820195.8,286047002.7,N
1667820215.7,286047000.1,N
1667820235.5,286047000.7,N
1667820255.3,286047000.7,N
1667820275.2,286047001.1,N
1667820295.0,286047000.8,N
1667820295.9,286047000.8,N
1667820315.7,286046998.8,N
1667820335.6,286046998.8,N
1667820355.4,286046998.4,N
1667820375.3,286046998.7,N
1667820395.1,286047000.8,N
1667820415.8,286046998.7,N
1667820435.7,286046999.2,N
1667820455.5,286046999.2,N
1667820475.4,286046998.7,N
1667820495.2,286046998.5,N
1667820515.0,286046999.3,N
1667820515.9,286046999.3,N
1667820535.8,286046998.8,N
1667820555.6,286046996.8,N
1667820575.5,286046996.8,N
1667820595.3,286046997.3,N
1667820615.1,286046997.5,N
1667820635.9,286046997.1,N
1667820655.7,286046997.4,N
1667820675.5,286046995.0,N
1667820695.4,286046994.9,N
1667820715.2,286046997.6,N
1667820735.1,286046995.6,N
1667820736.0,286046995.6,N
1667820755.8,286046995.2,N
1667820775.6,286046995.8,N
1667820795.5,286046995.4,N
1667820815.3,286046995.8,N
1667820835.2,286046995.9,N
1667820855.9,286046993.3,Y
1667820875.7,286046999.5,P
1667820895.6,286046999.6,N
1667820915.4,286046999.4,N
1667820935.2,286046999.0,N
1667820955.1,286046996.5,Y
1667820956.0,286046996.5,P
1667820975.8,286046998.5,N
1667820995.7,286046998.1,N
1667821015.5,286046998.4,N
1667821035.3,286046999.3,N
1667821055.2,286046996.6,Y
1667821075.0,286046998.2,P
1667821075.9,286046998.2,P
1667821095.8,286046998.5,P
1667821115.7,286047001.1,Y
1667821135.5,286047002.3,P
1667821155.4,286047002.7,N
1667821175.2,286047002.4,N
1667821195.0,286047000.3,N
1667821195.9,286047000.3,N
1667821215.8,286047002.8,N
1667821235.6,286047000.3,N
1667821255.5,286047000.4,N
1667821275.3,286047000.7,N
1667821295.1,286047000.2,N
1667821315.9,286047000.5,N
1667821335.7,286046999.6,N
1667821355.5,286046998.2,N
1667821375.4,286047000.3,N
1667821395.2,286047000.0,N
1667821415.1,286047000.4,N
1667821416.0,286047000.4,N
1667821435.8,286047000.8,N
1667821455.6,286047001.2,N
1667821475.5,286046998.6,N
1667821495.3,286047000.7,N
1667821515.1,286046998.6,N
1667821535.9,286046998.7,N
1667821555.7,286046998.2,N
1667821575.6,286046999.3,N
1667821595.4,286046997.1,N
1667821615.2,286046997.4,N
1667821635.1,286046997.0,N
1667821636.0,286046997.0,N
1667821655.8,286046996.7,N
1667821675.6,286046999.5,N
1667821695.5,286046999.6,N
1667821715.3,286046997.3,N
1667821735.2,286046996.6,N
1667821755.9,286046996.5,N
1667821775.7,286046997.0,N
1667821795.6,286046997.9,N
1667821815.4,286046995.5,Y
1667821835.3,286046999.6,P
1667821855.1,286046999.5,N
1667821875.8,286046996.6,P
1667821895.7,286046999.2,N
1667821915.5,286046999.5,N
1667821935.4,286046998.7,N
1667821955.2,286046998.9,N
1667821975.0,286046996.5,Y
1667821975.9,286046996.5,P
1667821995.8,286047011.9,P
1667822015.6,286046999.9,N
1667822035.5,286047000.6,N
1667822055.3,286047000.5,N
1667822075.1,286047000.7,N
1667822095.9,286046998.7,N
1667822115.7,286046998.1,N
1667822135.5,286046998.1,N
1667822155.4,286046998.8,N
1667822175.2,286046998.9,N
1667822195.0,286046998.9,N
1667822196.0,286046998.9,N
1667822215.8,286046998.5,N
1667822235.6,286046998.9,N
1667822255.5,286046999.2,N
1667822275.3,286046999.0,N
1667822295.1,286046999.4,N
1667822315.9,286046999.4,N
1667822335.7,286046999.3,N
1667822355.6,286046998.7,N
1667822375.4,286046998.3,N
1667822395.2,286046999.4,N
